sat.trackr.live / text

‹ back to catalog

STARLINK-36944

NORAD 68029 · 2026-040Q

PAYLOAD ACTIVE UNKNOWN

§ Identity

Operator
Country
US
Launch date
2026-03-01
Launch site
AFWTR
Launch vehicle
Mass (kg)
RCS (m²)

Purposes: comms

External: N2YO · Heavens-Above · Gunter

§ Orbital elements

Epoch: 2026-09-18T13:57:44.027712Z

Period
93.91 min
Inclination
97.2850°
Eccentricity
0.0002754
Mean motion
15.33442987 rev/d
Perigee alt
463.7 km
Apogee alt
467.4 km
Semi-major
6,843.7 km
B*
8.7849e-4
RAAN
208.9428°
Arg perigee
83.4636°
Mean anomaly
276.6920°
Rev number
3,102

§ Raw data

STARLINK-369441 68029U 26040Q   26261.58175958  .00028393  00000+0  87849-3 0  99952 68029  97.2850 208.9428 0002754  83.4636 276.6920 15.33442987 31023

JSON: /api/v1/satellites/68029 · /tle

For live sub-satellite position, see the globe view (requires WebGL).

§ Visibility from observer

Set your observer location to see the next 7 days of passes ≥ 10°. The values pass through the URL so the page stays shareable.

No JS? Fill the form by hand. The geolocation button needs JavaScript.